Location: ?????
(31.7163°N, 35.2535°E)
Time: 04:34:45
(UTC+00:00)

Daily predictions for brighter satellites

Satellite Brightness Start Highest point End
(mag) Time Altitude Azimuth Time Altitude Azimuth Time Altitude Azimuth
IDEFIX/ARIANE 42P 3.7 00:07:45 10° NNE 00:12:31 36° E 00:12:31 36° E
Cosmos 2263 Rocket 3.9 00:14:58 22° NNW 00:14:58 22° NNW 00:17:43 10° N
Cosmos 2228 4.5 00:22:40 36° NE 00:22:40 36° NE 00:25:35 10° NNE
ATLAS 3B CENTAUR R/B 3.9 00:03:45 10° W 00:22:22 61° SSW 00:30:28 10° ESE
Cosmos 2285 Rocket 4.4 00:26:07 51° NW 00:26:07 51° NW 00:31:26 10° N
SL-08 R/B 3.9 00:26:27 57° ENE 00:26:27 57° ENE 00:31:05 10° N
Cosmos 1553 Rocket 3.8 00:30:48 84° SE 00:30:58 86° E 00:37:05 10° N
ADEOS II 3.2 00:30:16 10° N 00:33:36 32° NNW 00:33:36 32° NNW
ATLAS CENTAUR R/B 3.8 00:37:35 14° NNW 00:37:35 14° NNW 00:38:31 10° N
Cosmos 1844 Rocket 2.6 00:36:01 83° ENE 00:36:01 83° ENE 00:41:27 10° NNE
Spot 4 Rocket 4.1 00:32:22 10° NNE 00:37:31 70° ESE 00:37:33 70° ESE
Cosmos 1300 4.2 00:39:38 34° ENE 00:39:38 34° ENE 00:42:30 10° NNE
CZ-2C R/B 4.2 00:38:57 10° NNE 00:41:44 35° ENE 00:41:44 35° ENE
Cosmos 1745 Rocket 4.4 00:44:17 10° N 00:50:27 60° E 00:55:59 13° SSE
Cosmos 468 4.4 00:48:15 10° NNW 00:53:22 74° W 00:53:22 74° W
Lacrosse 5 rocket 3.1 00:52:56 25° SE 00:53:37 26° ESE 00:57:25 10° ENE
Cosmos 1932 4.3 00:47:45 10° NNW 00:54:10 74° WSW 01:00:24 10° SSE
Meteosat 1 Rocket2 4.3 00:53:43 46° S 00:54:21 48° S 00:59:33 10° E
Cosmos 1244 Rocket 4.5 00:48:27 10° NNW 00:54:38 58° W 00:55:03 57° WSW
ARIANE 5 R/B 2.9 00:51:09 10° N 00:55:51 49° WNW 00:55:51 49° WNW
SL-08 R/B 4.4 00:53:30 10° N 00:59:45 78° W 01:02:19 38° S
SeaSat 1 3.9 00:56:17 10° NE 01:00:41 32° ESE 01:03:21 20° SSE
Cosmos 1758 Rocket 4.4 00:58:20 10° NNW 01:01:08 37° NW 01:01:08 37° NW
S3M 3.9 01:00:52 48° SSW 01:02:41 73° W 01:09:05 10° N
Delta 2 Rocket 3.9 01:03:16 45° NE 01:03:16 45° NE 01:06:21 10° E
Aureole 3 4.3 01:02:20 55° WSW 01:03:17 63° W 01:10:01 10° N
Cosmos 2058 Rocket 3.1 01:04:12 64° SSE 01:04:49 79° E 01:09:16 10° N
H-2A R/B 3.1 01:02:21 10° SE 01:06:14 43° ENE 01:10:07 10° N
Centaur D-1A AC-35 4.3 00:39:49 10° W 01:06:39 47° SSW 01:11:55 10° SE
Cosmos 494 Rocket 3.9 01:04:00 10° NNW 01:09:13 86° ENE 01:14:26 10° SSE
USA 215 4.0 01:07:52 10° NNE 01:13:53 41° NW 01:16:30 29° W
Landsat 5 4.1 01:11:57 11° SSE 01:15:40 53° ENE 01:19:39 10° N
CZ-2C R/B 3.2 01:13:16 10° NNE 01:17:44 46° E 01:21:36 14° S
Cosmos 1825 Rocket 4.1 01:17:03 10° NNW 01:20:27 39° WNW 01:20:27 39° WNW
OAO 3 Rocket 3.2 01:20:46 37° WNW 01:22:46 90° NNE 01:27:44 10° ESE
DELTA 2 R/B (1) 4.4 01:24:44 28° SSW 01:27:02 41° SE 01:32:16 10° ENE
Cosmos 1709 Rocket 4.2 01:24:08 10° N 01:30:15 70° E 01:36:18 10° SSE
Cosmos 1953 Rocket 3.7 01:28:18 10° NNW 01:32:38 51° W 01:34:03 36° SW
OAO 2 Rocket 3.8 01:31:56 24° WNW 01:35:05 60° N 01:40:17 10° E
ALOS 4.4 01:35:02 10° NE 01:38:53 25° E 01:42:43 10° SSE
PAYLOAD A 3.9 01:34:20 10° N 01:39:32 83° WNW 01:43:26 17° SSW
Atlas Centaur 2 2.7 01:38:02 24° W 01:42:21 80° S 01:50:20 10° E
Hubble Space Telescope 1.0 01:47:27 32° WSW 01:49:05 54° S 01:53:07 10° ESE
IDEFIX/ARIANE 42P 3.9 01:47:56 10° NNW 01:51:49 22° WNW 01:53:19 19° W
Cosmos 1174 3.8 01:50:02 26° SW 01:52:09 77° WNW 01:56:53 10° NNE
Cosmos 2315 Rocket 4.1 01:46:38 13° SSW 01:52:13 59° W 01:58:30 10° N
ADEOS 3.8 01:48:39 10° NNE 01:53:52 72° ESE 01:59:03 10° S
Meteor 2-1 Rocket 4.4 01:48:59 10° S 01:54:49 85° E 02:00:45 10° N
PSLV R/B 4.1 01:58:19 10° N 02:02:24 41° WNW 02:05:28 16° SW
Cosmos 1825 4.3 02:04:57 10° NNE 02:08:19 30° E 02:11:38 10° SE
Cosmos 1455 2.1 02:06:55 10° SSW 02:10:45 72° W 02:14:36 10° N
TSX-5 3.9 02:10:22 18° SW 02:12:16 37° WNW 02:15:14 10° N
Aureole 2 Rocket 1.8 02:13:58 10° SSW 02:16:46 87° WNW 02:19:44 10° NNE
deb Chang Zheng 4 3.9 02:12:39 10° N 02:16:51 48° WNW 02:21:01 10° SSW
ERS-2 3.1 02:14:18 10° SSW 02:17:20 25° W 02:20:24 10° NW
Cosmos 2278 Rocket 2.2 02:12:58 10° SSW 02:18:36 67° WNW 02:24:15 10° NNE
Cosmos 1400 Rocket 2.8 02:17:24 10° SSW 02:21:15 58° W 02:25:04 10° N
ASTRO F (AKARI) 4.2 02:23:39 10° N 02:26:43 66° WNW 02:29:50 10° SSW
GPS 2-04 Rocket1 4.4 02:24:42 10° SSW 02:27:26 21° SSE 02:30:16 10° E
SAR-Lupe-4 3.6 02:24:03 10° S 02:27:33 59° WSW 02:31:06 10° NNW
Cosmos 1812 Rocket 4.0 02:24:30 10° SSW 02:28:33 39° W 02:32:37 10° N
USA 281 3.5 02:22:24 10° N 02:28:41 50° WNW 02:34:57 10° SW
CZ-4B R/B 3.6 02:25:30 10° NNE 02:29:54 63° E 02:34:08 10° S
Cosmos 2251 Rocket 3.9 02:26:20 10° NNW 02:31:43 74° ENE 02:37:04 10° SSE
USA 81 4.5 02:26:42 10° N 02:31:58 69° E 02:37:13 10° S
Cosmos 1833 Rocket 4.1 02:26:59 10° N 02:32:23 44° ENE 02:37:44 10° SE
Lacrosse 5 rocket 2.6 02:28:37 10° WSW 02:32:40 32° NW 02:36:50 10° NNE
Cosmos 1076 Rocket 3.6 02:29:40 10° NNW 02:33:58 60° W 02:38:15 10° S
Meteor 2-10 Rocket 4.0 02:30:55 10° SSW 02:35:46 41° WNW 02:40:50 10° N
NOSS 3-4 (A) 3.4 02:31:13 10° SW 02:37:04 72° WNW 02:43:10 10° NNE
NOSS 3-4 (C) 3.4 02:31:21 10° SW 02:37:12 73° WNW 02:43:17 10° NNE
SeaSat 1 3.6 02:33:58 10° N 02:38:01 26° WNW 02:42:02 10° WSW
OAO 3 Copernicus 4.4 02:36:49 10° W 02:41:52 78° NNW 02:46:55 10° ENE
ATLAS 3B CENTAUR R/B 4.2 02:36:30 10° W 02:43:02 18° SW 02:47:12 10° S
DASH 3.6 02:44:43 10° W 02:58:30 70° S 03:01:55 10° ESE
